DLH25B EDDH-EKCH

Flight info

Callsign DLH25B
Flight time 0h 31m
Altitude 23000
Route LUGEG3G/33 LUGEG P605 GESKA/N0386F220 Z711 MONAK MONAK5A
Aircraft A321/M-SDE3FGHIRWY/LB1

Departure

Time 2026-04-26 09:55
Airport Hamburg Helmut Schmidt Airport (EDDH)

Arrival

Time 2026-04-26 10:27
Airport Copenhagen Kastrup Airport (EKCH)
Time Latitude Longitude Altitude Speed Heading
2026-04-26 09:43 53.63169 10.00360 51 ft 0 kts 87°
2026-04-26 09:49 53.63169 10.00357 51 ft 2 kts 87°
2026-04-26 09:49 53.63168 10.00314 51 ft 4 kts 87°
2026-04-26 09:49 53.63167 10.00271 51 ft 4 kts 109°
2026-04-26 09:50 53.63176 10.00253 48 ft 1 kts 176°
2026-04-26 09:50 53.63199 10.00251 51 ft 2 kts 176°
2026-04-26 09:50 53.63201 10.00251 51 ft 0 kts 176°
2026-04-26 09:52 53.63198 10.00251 47 ft 1 kts 176°
2026-04-26 09:53 53.63171 10.00253 51 ft 6 kts 177°
2026-04-26 09:53 53.63113 10.00259 51 ft 11 kts 176°
2026-04-26 09:53 53.63033 10.00221 51 ft 14 kts 212°
2026-04-26 09:53 53.62941 10.00124 51 ft 16 kts 212°
2026-04-26 09:54 53.62866 10.00027 50 ft 12 kts 234°
2026-04-26 09:54 53.62823 9.99889 50 ft 13 kts 244°
2026-04-26 09:54 53.62820 9.99778 47 ft 10 kts 322°
2026-04-26 09:54 53.62839 9.99763 49 ft 0 kts 335°
2026-04-26 09:55 53.62948 9.99673 49 ft 53 kts 333°
2026-04-26 09:55 53.63507 9.99190 52 ft 125 kts 333°
2026-04-26 09:55 53.64459 9.98372 137 ft 171 kts 333°
2026-04-26 09:55 53.65503 9.97472 975 ft 167 kts 332°
2026-04-26 09:56 53.66535 9.96567 1772 ft 167 kts 333°
2026-04-26 09:56 53.67615 9.95639 2242 ft 184 kts 333°
2026-04-26 09:56 53.68832 9.94659 2693 ft 203 kts 340°
2026-04-26 09:56 53.70280 9.94387 3134 ft 217 kts
2026-04-26 09:57 53.71778 9.94695 3825 ft 220 kts 14°
2026-04-26 09:57 53.73174 9.95693 4814 ft 219 kts 33°
2026-04-26 09:57 53.74316 9.97535 5415 ft 241 kts 55°
2026-04-26 09:57 53.75131 10.00166 5881 ft 261 kts 62°
2026-04-26 09:58 53.75933 10.02972 6642 ft 267 kts 62°
2026-04-26 09:58 53.76742 10.05814 7431 ft 270 kts 62°
2026-04-26 09:58 53.77567 10.08703 8203 ft 275 kts 61°
2026-04-26 09:58 53.78404 10.11635 8979 ft 279 kts 60°
2026-04-26 09:59 53.79258 10.14626 9732 ft 285 kts 60°
2026-04-26 09:59 53.79833 10.16632 10224 ft 288 kts 59°
2026-04-26 09:59 53.81040 10.20830 10721 ft 311 kts 59°
2026-04-26 09:59 53.82023 10.24232 10863 ft 333 kts 60°
2026-04-26 10:00 53.83066 10.27857 11179 ft 348 kts 60°
2026-04-26 10:00 53.84126 10.31573 11759 ft 353 kts 60°
2026-04-26 10:00 53.85195 10.35340 12390 ft 357 kts 60°
2026-04-26 10:00 53.86271 10.39150 13038 ft 361 kts 60°
2026-04-26 10:01 53.87361 10.43008 13686 ft 364 kts 60°
2026-04-26 10:01 53.88450 10.46849 14284 ft 368 kts 59°
2026-04-26 10:01 53.89567 10.50785 14852 ft 372 kts 59°
2026-04-26 10:01 53.90691 10.54751 15407 ft 375 kts 59°
2026-04-26 10:02 53.91839 10.58815 15955 ft 379 kts 59°
2026-04-26 10:02 53.92965 10.62808 16512 ft 382 kts 59°
2026-04-26 10:02 53.94274 10.66721 17045 ft 381 kts 50°
2026-04-26 10:02 53.95949 10.70185 17568 ft 379 kts 41°
2026-04-26 10:03 53.97759 10.73464 18103 ft 383 kts 41°
2026-04-26 10:03 53.99589 10.76778 18655 ft 386 kts 41°
2026-04-26 10:03 54.01431 10.80122 19112 ft 389 kts 41°
2026-04-26 10:03 54.03280 10.83486 19575 ft 391 kts 41°
2026-04-26 10:04 54.05144 10.86884 20025 ft 394 kts 41°
2026-04-26 10:04 54.07003 10.90284 20487 ft 396 kts 41°
2026-04-26 10:04 54.08885 10.93737 20942 ft 399 kts 41°
2026-04-26 10:04 54.10773 10.97213 21398 ft 401 kts 41°
2026-04-26 10:05 54.12677 11.00720 21838 ft 404 kts 41°
2026-04-26 10:05 54.14588 11.04250 22277 ft 406 kts 41°
2026-04-26 10:05 54.16512 11.07820 22714 ft 409 kts 41°
2026-04-26 10:05 54.18440 11.11405 23156 ft 412 kts 41°
2026-04-26 10:06 54.20383 11.15020 23327 ft 413 kts 41°
2026-04-26 10:06 54.22326 11.18643 23356 ft 414 kts 41°
2026-04-26 10:06 54.24242 11.22224 23344 ft 413 kts 41°
2026-04-26 10:06 54.26181 11.25856 23350 ft 413 kts 41°
2026-04-26 10:07 54.28118 11.29490 23352 ft 413 kts 41°
2026-04-26 10:07 54.30051 11.33124 23354 ft 413 kts 41°
2026-04-26 10:07 54.31986 11.36769 23354 ft 413 kts 41°
2026-04-26 10:07 54.33914 11.40408 23354 ft 413 kts 41°
2026-04-26 10:08 54.35847 11.44061 23349 ft 413 kts 41°
2026-04-26 10:08 54.37775 11.47705 23350 ft 413 kts 41°
2026-04-26 10:08 54.39078 11.50169 23350 ft 413 kts 41°
2026-04-26 10:08 54.41638 11.55000 23362 ft 413 kts 41°
2026-04-26 10:09 54.43571 11.58648 23360 ft 413 kts 41°
2026-04-26 10:09 54.44847 11.61059 23363 ft 413 kts 41°
2026-04-26 10:09 54.47428 11.65945 23364 ft 412 kts 41°
2026-04-26 10:09 54.49354 11.69599 23365 ft 412 kts 41°
2026-04-26 10:10 54.50629 11.72021 23365 ft 412 kts 41°
2026-04-26 10:10 54.52555 11.75679 23362 ft 412 kts 40°
2026-04-26 10:10 54.54480 11.79335 23364 ft 412 kts 40°
2026-04-26 10:10 54.56398 11.82991 23338 ft 410 kts 40°
2026-04-26 10:11 54.58281 11.86605 23070 ft 399 kts 40°
2026-04-26 10:11 54.60105 11.90122 22696 ft 390 kts 40°
2026-04-26 10:11 54.61990 11.93373 22254 ft 376 kts 32°
2026-04-26 10:11 54.64073 11.95960 21832 ft 363 kts 26°
2026-04-26 10:12 54.66160 11.98341 21414 ft 357 kts 26°
2026-04-26 10:12 54.68212 12.00701 21003 ft 351 kts 26°
2026-04-26 10:12 54.70206 12.03007 20593 ft 346 kts 26°
2026-04-26 10:12 54.72187 12.05300 20171 ft 341 kts 26°
2026-04-26 10:13 54.74148 12.07572 19758 ft 337 kts 26°
2026-04-26 10:13 54.76087 12.09824 19332 ft 335 kts 26°
2026-04-26 10:13 54.78013 12.12067 18904 ft 332 kts 26°
2026-04-26 10:13 54.79928 12.14293 18452 ft 330 kts 25°
2026-04-26 10:14 54.81830 12.16505 17991 ft 328 kts 26°
2026-04-26 10:14 54.83715 12.18700 17545 ft 326 kts 26°
2026-04-26 10:14 54.85590 12.20887 17109 ft 323 kts 26°
2026-04-26 10:14 54.87450 12.23055 16672 ft 321 kts 26°
2026-04-26 10:15 54.89299 12.25208 16238 ft 319 kts 26°
2026-04-26 10:15 54.91137 12.27356 15789 ft 317 kts 26°
2026-04-26 10:15 54.92933 12.29461 15357 ft 315 kts 26°
2026-04-26 10:15 54.94768 12.31611 14914 ft 313 kts 26°
2026-04-26 10:16 54.96571 12.33721 14465 ft 311 kts 26°
2026-04-26 10:16 54.98336 12.35792 14006 ft 309 kts 26°
2026-04-26 10:16 55.00112 12.37879 13539 ft 307 kts 27°
2026-04-26 10:16 55.01877 12.39947 13098 ft 305 kts 26°
2026-04-26 10:17 55.03640 12.42001 12645 ft 303 kts 27°
2026-04-26 10:17 55.05390 12.44038 12201 ft 302 kts 27°
2026-04-26 10:17 55.07133 12.46050 11784 ft 297 kts 24°
2026-04-26 10:17 55.08965 12.47345 11593 ft 276 kts
2026-04-26 10:18 55.10830 12.47494 11197 ft 265 kts 351°
2026-04-26 10:18 55.12669 12.47258 10782 ft 264 kts 352°
2026-04-26 10:18 55.14502 12.47024 10376 ft 263 kts 352°
2026-04-26 10:18 55.16327 12.46791 9938 ft 263 kts 352°
2026-04-26 10:19 55.18146 12.46558 9430 ft 260 kts 352°
2026-04-26 10:19 55.19948 12.46329 8784 ft 259 kts 352°
2026-04-26 10:19 55.21743 12.46100 8177 ft 258 kts 352°
2026-04-26 10:19 55.23527 12.45869 7577 ft 257 kts 352°
2026-04-26 10:20 55.25307 12.45636 6992 ft 256 kts 353°
2026-04-26 10:20 55.27077 12.45407 6406 ft 254 kts 353°
2026-04-26 10:20 55.28832 12.45183 5867 ft 251 kts 353°
2026-04-26 10:20 55.30563 12.44959 5433 ft 254 kts 353°
2026-04-26 10:21 55.32341 12.44727 5022 ft 254 kts 353°
2026-04-26 10:21 55.34089 12.44500 4708 ft 250 kts 353°
2026-04-26 10:21 55.35838 12.44273 4349 ft 250 kts 353°
2026-04-26 10:21 55.37541 12.44053 3988 ft 248 kts 353°
2026-04-26 10:22 55.39265 12.43828 3631 ft 246 kts 353°
2026-04-26 10:22 55.40943 12.43611 3475 ft 237 kts 353°
2026-04-26 10:22 55.42545 12.43404 3354 ft 225 kts 352°
2026-04-26 10:22 55.44063 12.43214 3257 ft 213 kts 352°
2026-04-26 10:23 55.45524 12.43027 3183 ft 206 kts 352°
2026-04-26 10:23 55.46925 12.42938 3080 ft 200 kts
2026-04-26 10:23 55.48257 12.43665 3027 ft 202 kts 24°
2026-04-26 10:23 55.49340 12.45151 2852 ft 192 kts 36°
2026-04-26 10:24 55.50326 12.46671 2602 ft 184 kts 35°
2026-04-26 10:24 55.51274 12.48127 2352 ft 178 kts 35°
2026-04-26 10:24 55.52195 12.49541 2113 ft 173 kts 35°
2026-04-26 10:24 55.53080 12.50902 1887 ft 164 kts 34°
2026-04-26 10:25 55.53905 12.52173 1675 ft 152 kts 34°
2026-04-26 10:25 55.54682 12.53371 1469 ft 146 kts 34°
2026-04-26 10:25 55.55435 12.54558 1267 ft 145 kts 34°
2026-04-26 10:25 55.56197 12.55714 998 ft 143 kts 33°
2026-04-26 10:26 55.56936 12.56841 766 ft 138 kts 35°
2026-04-26 10:26 55.57653 12.57930 507 ft 134 kts 37°
2026-04-26 10:26 55.58348 12.59008 316 ft 132 kts 39°
2026-04-26 10:26 55.59029 12.60065 120 ft 130 kts 39°
2026-04-26 10:27 55.59700 12.61096 31 ft 120 kts 38°
2026-04-26 10:27 55.60230 12.61910 21 ft 78 kts 40°
2026-04-26 10:27 55.60525 12.62365 23 ft 46 kts 40°
2026-04-26 10:27 55.60750 12.62714 26 ft 41 kts 41°
2026-04-26 10:28 55.60958 12.63033 23 ft 39 kts 41°
2026-04-26 10:28 55.61144 12.63315 28 ft 12 kts 28°
2026-04-26 10:28 55.61227 12.63321 28 ft 13 kts 359°
2026-04-26 10:28 55.61331 12.63311 28 ft 17 kts 356°
2026-04-26 10:29 55.61438 12.63402 31 ft 18 kts 40°
2026-04-26 10:29 55.61545 12.63564 23 ft 22 kts 41°
2026-04-26 10:29 55.61659 12.63744 25 ft 23 kts 41°
2026-04-26 10:29 55.61777 12.63927 28 ft 23 kts 41°
2026-04-26 10:30 55.61907 12.64106 30 ft 25 kts 28°
2026-04-26 10:30 55.62074 12.64241 21 ft 28 kts 25°
2026-04-26 10:30 55.62243 12.64379 18 ft 24 kts 21°
2026-04-26 10:30 55.62346 12.64429 20 ft 0 kts 15°
2026-04-26 10:31 55.62351 12.64432 19 ft 3 kts 15°
2026-04-26 10:32 55.62383 12.64448 19 ft 6 kts 15°
2026-04-26 10:32 55.62436 12.64472 20 ft 10 kts 14°
2026-04-26 10:32 55.62506 12.64445 20 ft 13 kts 314°
2026-04-26 10:32 55.62560 12.64306 21 ft 14 kts 303°
2026-04-26 10:33 55.62608 12.64173 21 ft 11 kts 303°
2026-04-26 10:33 55.62666 12.64133 20 ft 11 kts 25°
2026-04-26 10:33 55.62695 12.64161 21 ft 2 kts 33°
2026-04-26 10:33 55.62695 12.64162 21 ft 0 kts 33°